Hourly Data Report for October 01, 2016

CORAL HARBOUR A
NUNAVUT

64°11'36.000" N
83°21'34.000" W
62.20 m
2301002
71915
YZS

Download Data

Hourly Data (October 2016)
Hourly Data Report for October 1, 2016
TIME
LST
Temp Definition
°C
Dew Point Definition
°C
Rel Hum Definition
%
Precip. Amount Definition
mm

Wind Dir Definition
10's deg

Wind Spd Definition
km/h
Visibility Definition
km
Stn Press Definition
kPa
Hmdx Definition


Wind Chill Definition


Weather Definition


00:00 -1.4 -3.0 89   28 13 24.1 101.11   -6 LegendNANA
01:00 -0.9 -2.8 87   26 13 24.1 101.18   -5 Mainly Clear
02:00 -0.8 -2.5 88   31 17 24.1 101.22   -6 LegendNANA
03:00 -0.8 -2.5 88   31 15 24.1 101.28   -5 LegendNANA
04:00 -1.1 -2.5 90   31 15 24.1 101.32   -6 Mainly Clear
05:00 -1.3 -2.3 93   30 13 24.1 101.35   -6 LegendNANA
06:00 -2.0 -2.7 95   33 11 24.1 101.36   -6 LegendNANA
07:00 -2.8 -3.5 95   31 4 24.1 101.36   -4 Mainly Clear
08:00 -2.6 -3.3 95   27 6 24.1 101.37   -5 LegendNANA
09:00 0.0 -1.6 89   24 8 24.1 101.38   -3 LegendNANA
10:00 1.5 -0.9 84   28 13 24.1 101.35     Mostly Cloudy
11:00 1.1 -0.7 88   22 12 24.1 101.37     LegendNANA
12:00 2.2 -0.2 84   28 14 24.1 101.32     LegendNANA
13:00 2.6 -0.2 82   29 13 24.1 101.31     Mostly Cloudy
14:00 3.9 0.2 77   31 15 24.1 101.28     LegendNANA
15:00 2.7 0.1 83   28 17 24.1 101.26     LegendNANA
16:00 2.1 0.2 87   27 16 24.1 101.25     Cloudy
17:00 1.8 0.2 89   28 12 24.1 101.25     Rain
18:00 1.4 0.1 91   33 17 24.1 101.22     Rain
19:00 0.7 -0.3 93   30 13 24.1 101.20     Rain
20:00 0.6 -0.6 92   32 13 24.1 101.20     LegendNANA
21:00 0.7 -0.6 91   31 17 24.1 101.17     LegendNANA
22:00 0.1 -1.5 89   32 14 24.1 101.19     Cloudy
23:00 0.4 -2.0 84   34 26 24.1 101.19     LegendNANA

Notes on Data Quality.

Legend

  • E = Estimated
  • M = Missing
  • NA = Not Available*
  • [empty] = Indicates an unobserved value
Date modified: